Regional Weather Roundup
Issued by NWS Sioux Falls, SD

Home | Current Version | Previous Version | Text Only | Print | Product List | Glossary On
Versions: 1 2 3 4 5 6 7 8 9 10 11 12 13 14 15 16 17 18 19 20 21 22 23 24 25 26 27 28 29 30 31 32 33 34 35 36 37 38 39 40 41 42 43 44 45 46 47 48 49 50
000
ASUS43 KFSD 232210
RWRFSD

WEATHER ROUNDUP FOR SE SOUTH DAKOTA/SW MINNESOTA/NW IOWA
NATIONAL WEATHER SERVICE SIOUX FALLS SD
500 PM CDT MON OCT 23 2017

NOTE: "FAIR" INDICATES FEW OR NO CLOUDS BELOW 12,000 FEET WITH NO
SIGNIFICANT WEATHER AND OR OBSTRUCTIONS TO VISIBILITY.


SDZ038>040-050-052>070-232300-
SOUTHEAST SOUTH DAKOTA

CITY           SKY/WX    TMP DP  RH WIND       PRES   REMARKS
BROOKINGS      CLOUDY    52  29  41 NW21G32   30.01R
CHAMBERLAIN    CLOUDY    59  31  34 NW30G38   30.14S
HURON          CLOUDY    55  32  41 NW23G31   30.07R
MADISON        FAIR      52  25  35 NW25G43   30.04R
MITCHELL       PTSUNNY   56  32  40 NW24G32   30.09S
SIOUX FALLS    PTSUNNY   55  28  35 NW24G43   30.02S
WINNER         CLOUDY    55  35  47 NW22G32   30.19R
YANKTON        PTSUNNY   54  32  43 NW18G29   30.09R
$$

MNZ071-072-080-081-089-090-097-098-232300-
SOUTHWEST MINNESOTA

CITY           SKY/WX    TMP DP  RH WIND       PRES   REMARKS
FAIRMONT       CLOUDY    49  35  58 NW24G30   29.91R
JACKSON        CLOUDY    48  34  57 NW20G28   29.95S
LUVERNE        PTSUNNY   52  27  37 N14G24    30.01S
MARSHALL       CLOUDY    54  27  35 N29G35    29.94F
MONTEVIDEO     CLOUDY    55  28  35 N15G24    29.95S
PIPESTONE      PTSUNNY   52  27  37 N20G32    29.99S
REDWOOD FALLS  CLOUDY    52  31  44 NW18G26   29.93R
TRACY          CLOUDY    53  32  45 NW16      29.96S
WORTHINGTON    CLOUDY    52  30  43 NW24G31   29.98S
$$

IAZ001>003-012>014-020>022-031-032-NEZ013-014-SDZ071-232300-
NORTHWEST IOWA

CITY           SKY/WX    TMP DP  RH WIND       PRES   REMARKS
CHEROKEE       CLOUDY    51  35  54 NW20G29   30.01R
DENISON        CLOUDY    55  34  44 NW31G41   29.99R
ESTHERVILLE    CLOUDY    48  35  60 NW21G37   29.94S
LE MARS        CLOUDY    55  30  38 NW18G29   30.03R
ORANGE CITY    MOSUNNY   55  30  38 N22G31    30.01S
SHELDON        PTSUNNY   52  32  46 NW18G30   29.99R
SIOUX CITY     PTSUNNY   56  31  38 N29G46    30.03R
SPENCER        CLOUDY    51  32  48 NW26G36   29.98R
STORM LAKE     PTSUNNY   50  36  57 NW29G39   29.98R
$$

ABBREVIATIONS USED IN REMARKS
   TC - TEMPERATURE IN CELSIUS
  WCI - WIND CHILL INDEX
   HX - HEAT INDEX
  VSB - VISIBILITY




USA.gov is the U.S. government's official web portal to all federal, state and local government web resources and services.